Theta_e
308 308 308 308 308 308 308 308 308 309 309 309 309 309 309 309 310 310 310 311 311 312 313 314 314 315 315 314 313 313 313 315 319 319 317 317 315 314 313 312 313 313 312 313 314 316 316 316 317 317 319 321 321 323 322 322 322 321 322 320 317 319 320 321 321 319 319 319 318 315 315 315 316 315 313 312 312 314 314 314 314 314 313 312 310 309 310 308
308 308 308 308 308 308 308 308 308 308 308 308 308 308 309 308 309 309 309 310 310 310 311 313 314 315 316 315 314 314 313 316 319 320 318 317 313 312 312 311 312 312 312 315 317 317 317 317 317 317 317 320 321 322 322 321 320 321 322 320 319 321 321 319 319 318 318 318 317 316 315 315 316 315 313 313 314 314 314 314 314 314 313 312 309 309 309 306
308 308 308 308 308 308 308 309 309 309 309 309 309 308 308 308 308 308 309 309 309 310 310 312 313 315 316 315 315 313 314 317 320 320 320 318 314 311 311 310 311 311 312 316 317 316 317 317 318 317 316 319 320 321 321 321 319 320 321 320 321 321 319 318 317 317 317 317 317 316 315 315 316 315 313 313 315 315 315 315 314 314 314 313 310 309 309 307
308 308 308 308 308 308 309 309 309 309 309 309 309 308 308 308 308 308 308 308 309 309 309 310 312 314 315 316 315 313 317 321 320 319 318 317 314 311 310 310 311 311 312 314 315 316 316 317 317 316 317 319 320 320 320 320 319 320 319 319 321 319 318 318 316 316 316 315 316 316 315 315 315 314 313 313 315 316 316 316 316 315 315 315 311 309 309 308
309 309 309 309 309 309 309 309 309 309 309 309 309 309 308 308 308 308 308 308 308 308 309 309 311 313 315 316 314 315 319 321 320 318 316 314 312 311 311 311 310 311 312 312 314 315 315 317 317 317 318 319 320 319 319 319 318 318 318 318 319 318 317 317 315 315 314 313 314 315 315 315 315 314 313 314 315 316 317 316 316 316 316 316 312 309 310 308
310 310 310 310 309 309 309 309 309 309 309 309 309 309 309 308 308 307 308 308 308 308 308 308 310 313 315 315 314 317 320 319 320 317 314 312 311 311 312 312 311 310 311 312 314 316 316 317 316 317 318 318 320 320 318 318 315 317 319 318 317 317 317 316 314 313 313 313 314 315 315 314 314 314 314 314 314 316 316 315 315 316 316 316 313 310 310 308
310 310 310 310 310 310 310 309 309 309 309 309 309 309 309 308 308 308 308 307 308 308 308 308 310 313 315 315 315 318 320 320 320 317 313 313 311 312 312 312 312 310 311 313 315 316 317 318 317 318 318 318 319 319 318 316 315 316 318 318 317 316 316 315 314 312 312 313 314 313 313 313 314 315 315 314 314 315 315 314 313 314 315 315 312 310 310 309
310 310 310 310 310 310 309 310 309 309 309 309 309 309 308 309 308 307 307 307 308 307 308 309 310 313 315 318 320 319 320 321 320 316 315 314 313 312 312 312 312 310 312 314 315 316 317 317 319 318 318 319 318 318 317 315 316 316 317 318 316 315 315 315 313 312 312 312 313 312 312 313 314 314 314 314 315 315 315 314 312 312 313 313 312 311 310 310
311 311 310 310 310 310 310 309 310 309 309 309 309 309 309 308 308 308 307 307 307 307 308 309 311 314 314 320 322 317 320 322 318 316 315 314 314 313 312 313 312 311 313 314 314 316 317 317 319 318 318 318 317 317 316 316 316 316 316 317 315 315 315 314 313 313 313 312 312 311 312 314 313 313 313 314 314 314 315 315 313 312 311 312 311 311 311 310
312 312 311 311 310 310 310 310 309 309 309 309 309 309 308 308 308 308 307 307 307 308 309 310 312 313 315 320 319 316 321 318 315 315 314 313 313 312 312 313 312 312 314 314 314 316 316 318 319 318 318 318 317 316 316 315 316 314 315 315 315 315 315 314 313 313 313 312 312 312 313 314 312 311 314 315 314 314 315 314 314 312 311 312 311 311 311 310
312 312 312 311 311 311 310 310 310 309 309 309 309 309 308 308 308 308 308 308 307 309 310 311 312 314 318 319 316 317 320 315 314 314 313 312 312 312 313 311 310 313 315 314 316 317 316 319 318 317 318 317 316 316 315 314 313 313 313 314 314 315 315 314 314 313 312 312 312 312 313 314 312 311 314 315 312 313 314 314 313 312 311 311 311 311 311 311
313 313 312 312 312 311 311 310 310 310 310 309 309 309 308 308 308 308 308 308 307 310 311 312 312 314 319 318 315 319 317 313 314 313 312 312 311 311 312 310 309 311 314 315 318 315 314 318 317 316 317 316 317 317 314 312 312 313 312 314 316 315 315 315 315 313 313 313 312 311 312 313 314 312 314 314 312 312 313 313 313 312 311 311 311 311 310 311
313 313 312 312 312 311 311 311 311 311 310 310 309 309 309 308 308 308 308 308 308 310 312 313 313 315 318 317 317 319 315 313 313 312 311 311 311 311 310 310 310 310 311 315 318 314 312 316 317 317 316 316 318 315 312 312 312 313 313 314 315 316 316 316 315 312 312 312 311 312 312 314 316 315 316 315 312 312 312 312 312 312 311 311 311 311 310 310
313 313 312 312 312 312 311 311 311 310 310 310 310 310 309 309 308 308 308 308 309 312 313 313 313 316 318 317 316 315 314 314 313 312 311 310 312 311 310 311 310 310 310 312 314 312 311 313 315 316 315 314 315 312 312 314 312 314 315 315 315 315 315 315 314 312 313 311 310 312 312 314 316 317 317 315 312 312 312 313 313 313 312 311 311 311 310 310
313 313 312 312 312 311 311 311 310 310 310 310 310 310 310 309 309 308 308 309 311 312 313 313 314 317 318 316 316 313 313 313 313 314 312 311 314 314 313 312 311 311 311 311 311 311 312 314 315 316 314 312 313 314 316 316 315 316 315 314 316 315 316 316 313 312 314 311 310 313 312 314 316 317 317 314 313 312 313 314 314 313 313 312 311 310 310 310
313 313 312 312 312 311 311 310 310 310 310 310 310 311 310 310 309 309 309 310 312 312 314 317 316 316 317 316 316 313 314 315 315 315 312 311 314 316 315 313 313 312 312 311 311 311 312 315 316 316 314 312 314 316 317 317 316 318 316 314 316 315 316 317 313 312 314 312 311 312 313 315 316 316 315 313 313 313 313 314 314 314 314 312 311 310 310 309
313 312 312 312 311 311 311 310 310 309 309 310 310 310 311 311 309 309 310 310 313 313 314 318 318 315 315 315 315 314 316 316 316 315 312 311 313 315 314 314 315 314 313 312 313 314 314 314 315 314 315 314 315 317 316 314 314 315 316 315 316 315 314 314 314 312 312 313 313 313 313 314 315 316 315 313 313 313 313 314 314 314 314 314 312 311 310 310
313 312 312 312 312 311 310 309 308 308 308 309 309 311 311 310 309 311 313 313 313 314 313 316 317 315 315 315 314 316 317 317 315 314 312 311 311 313 314 314 315 315 314 314 313 314 314 315 316 315 316 316 316 316 315 314 313 312 313 313 314 315 314 314 315 313 312 312 313 314 313 314 314 315 315 314 314 313 313 313 314 314 314 314 314 312 311 310
313 313 312 312 312 311 310 309 308 308 307 308 309 310 311 312 311 311 315 315 314 316 315 316 316 315 314 314 315 316 315 315 314 314 313 311 310 312 313 313 315 314 314 315 314 314 315 316 317 316 317 317 317 317 316 317 316 314 315 315 313 313 313 315 316 312 312 313 313 314 314 314 315 314 315 315 315 314 314 314 314 314 313 314 314 313 312 311
313 313 312 312 312 311 311 310 309 308 307 308 309 310 313 316 315 314 315 314 314 315 315 315 315 315 314 315 316 315 314 313 313 315 314 312 311 312 312 313 315 314 314 316 317 316 316 316 317 318 318 318 318 318 317 317 317 316 316 316 315 314 314 317 316 311 311 313 313 314 314 314 315 315 315 315 315 314 314 314 314 314 314 314 314 314 313 312
313 313 313 313 312 312 311 310 309 308 308 309 309 312 314 315 318 316 312 312 314 314 314 314 313 314 313 315 316 315 314 314 313 315 314 311 312 313 313 313 314 315 315 316 317 315 315 316 317 318 318 317 318 318 318 317 316 316 315 314 315 315 315 317 316 310 310 312 313 314 315 314 315 314 314 314 314 314 313 313 314 314 314 315 315 314 314 312
313 314 313 313 313 312 312 311 309 307 308 310 311 314 313 313 314 312 309 311 314 316 315 313 312 311 311 312 314 314 314 313 313 315 313 311 313 313 313 314 314 316 316 316 317 316 316 316 317 317 317 317 316 316 316 316 316 316 315 315 315 316 317 317 314 310 310 311 313 314 313 314 314 314 314 314 313 313 314 314 314 315 315 315 315 315 315 313
314 314 313 313 313 312 312 312 308 307 309 311 313 315 311 309 309 307 308 311 313 316 315 313 312 311 311 312 312 311 312 311 312 315 313 312 312 313 314 314 313 316 318 317 317 317 317 317 316 316 316 316 316 315 314 314 315 316 316 315 315 317 318 316 313 310 309 310 312 313 313 314 314 314 314 314 314 314 314 315 315 316 316 316 316 317 315 313
315 314 313 313 312 313 313 310 309 311 310 310 311 312 310 309 308 309 312 313 312 316 315 314 313 312 312 314 312 311 311 311 312 314 313 312 313 313 314 315 314 315 316 316 316 317 317 316 315 315 316 316 316 315 315 314 314 316 317 317 316 318 318 317 316 313 312 312 311 312 313 314 315 316 315 315 314 314 314 314 315 316 315 316 316 317 316 314
315 314 314 313 312 313 311 310 312 312 311 312 310 308 308 309 308 308 311 312 313 315 314 313 314 313 313 313 312 311 311 312 312 313 313 312 313 313 313 314 313 313 315 315 315 316 316 315 314 315 316 316 317 316 316 317 315 315 318 318 318 318 318 319 319 316 315 315 312 313 314 314 314 317 317 315 313 313 313 313 313 314 315 316 316 316 316 314
315 314 314 313 313 313 312 314 314 310 312 314 309 306 307 309 309 309 310 312 314 314 312 313 314 313 313 312 312 311 311 312 310 311 313 312 312 312 312 313 313 313 315 315 314 316 316 312 312 316 317 317 317 316 317 318 315 314 319 320 319 319 318 319 319 317 315 315 313 312 314 315 315 315 316 316 314 313 314 315 314 314 314 317 318 317 315 313
316 315 314 314 313 312 313 315 312 310 314 314 308 304 305 307 308 309 309 308 312 315 314 313 313 313 313 313 312 311 311 310 309 309 311 310 311 312 312 312 313 312 313 315 315 316 317 314 313 316 317 317 317 316 318 318 316 316 318 319 318 317 318 319 318 317 315 316 315 314 315 316 315 315 315 315 314 314 314 315 315 315 314 314 317 319 315 313
317 316 315 314 313 312 312 313 311 312 314 310 307 306 305 306 307 310 309 307 311 318 316 312 311 311 312 311 311 311 309 308 312 311 307 307 309 311 311 312 313 313 313 314 314 315 318 317 316 316 315 317 317 317 318 319 318 317 315 315 315 316 316 316 316 315 315 315 316 316 315 316 316 315 316 315 314 313 313 313 314 314 314 313 314 318 315 313
318 317 315 314 313 312 312 311 311 313 312 308 307 307 305 306 308 310 309 310 314 315 314 312 312 311 312 310 310 310 308 308 311 309 306 308 309 309 311 311 312 314 313 312 315 317 316 312 313 315 316 317 316 313 315 319 318 314 312 313 313 314 313 314 314 314 314 316 317 317 316 316 316 314 315 315 313 313 314 313 314 314 316 316 316 319 317 313
318 317 316 314 313 313 312 312 311 310 310 309 308 306 306 308 310 310 311 313 313 312 312 312 313 314 313 312 312 311 310 309 307 306 308 309 308 308 309 309 310 313 314 313 315 316 311 306 308 313 315 314 311 308 309 313 313 312 313 314 314 313 312 312 313 312 314 318 318 317 316 316 316 315 315 315 314 314 315 314 315 315 316 318 318 319 316 313
318 318 317 315 315 314 313 314 312 310 310 310 308 306 308 310 310 311 314 312 310 313 313 312 313 315 314 315 317 313 311 311 308 307 309 308 309 309 309 310 311 313 314 314 315 316 312 309 310 312 312 310 310 310 308 308 309 312 314 314 315 315 313 313 313 312 316 319 317 316 317 317 316 314 314 314 314 314 315 314 314 315 316 318 320 319 315 313
318 317 317 315 315 314 313 314 312 310 310 309 307 307 310 311 311 313 313 310 311 314 315 315 316 315 315 317 319 316 314 314 310 309 311 310 310 310 311 313 314 315 316 316 316 317 317 315 314 313 310 309 313 313 310 307 308 312 313 313 316 317 316 317 316 315 317 318 314 314 318 319 316 314 313 314 314 313 314 314 314 315 314 317 322 320 315 313
317 316 317 317 315 314 313 314 312 309 310 309 308 308 309 311 314 315 312 311 315 316 316 319 317 316 317 318 319 318 316 316 312 310 312 313 312 312 313 314 316 318 317 316 317 318 319 318 315 314 311 310 313 314 314 312 309 311 313 314 316 317 319 321 319 318 318 317 313 311 314 316 313 312 314 314 313 313 314 314 316 316 315 318 322 320 315 313
318 317 317 317 316 315 314 314 312 310 310 309 309 309 310 313 316 317 315 313 316 315 315 318 317 317 318 318 319 318 316 317 313 311 313 313 312 313 314 313 315 318 316 315 316 316 318 317 315 316 315 312 312 314 316 316 311 311 313 314 316 317 318 318 317 317 317 315 313 311 312 313 311 312 314 314 314 314 314 314 317 317 318 322 320 316 314 312
320 318 317 317 316 315 314 313 312 310 310 310 310 310 311 313 315 315 316 315 316 316 314 315 317 318 318 318 318 317 317 318 316 313 313 314 313 314 315 314 315 315 315 315 315 315 316 318 318 316 314 312 313 315 316 316 314 312 313 314 316 316 316 316 316 316 314 314 314 312 312 312 311 313 315 314 314 314 313 315 316 315 319 322 318 314 313 312
321 319 318 317 316 315 315 313 312 310 310 310 311 311 311 313 313 314 315 315 315 317 315 314 318 318 316 317 318 317 318 318 316 314 314 315 315 316 316 316 315 314 315 316 316 316 315 317 318 313 310 309 309 312 314 314 315 314 313 315 315 315 316 317 318 316 313 314 315 314 314 313 313 314 315 314 313 313 314 314 313 313 315 318 318 317 315 313
320 319 318 317 316 316 315 314 311 310 310 311 311 312 311 312 313 313 314 313 313 316 315 314 317 317 315 316 318 318 317 316 315 315 315 316 316 316 316 317 316 315 315 315 317 318 316 316 317 312 312 308 304 307 310 310 312 313 313 315 314 313 314 314 317 316 315 316 316 315 315 314 314 315 314 313 312 312 313 313 313 313 313 315 318 319 318 314
319 318 318 318 317 316 316 314 311 310 311 312 312 313 313 312 312 312 312 311 312 315 314 313 315 316 315 314 316 318 317 315 316 314 315 316 316 317 317 316 316 316 315 314 316 319 317 317 317 311 310 308 303 307 310 308 309 310 310 311 312 313 314 314 315 315 315 317 316 314 315 313 313 315 313 312 312 312 312 312 311 312 313 314 316 317 317 315
318 318 319 318 317 316 316 313 310 310 312 312 312 314 314 313 312 311 311 310 312 314 313 312 314 316 316 314 315 318 316 316 317 315 315 316 316 318 317 316 317 316 314 314 315 317 316 316 317 309 306 308 306 308 312 311 308 307 307 309 309 311 313 313 314 314 314 315 315 315 315 313 313 314 314 314 313 312 312 312 312 311 312 314 314 316 317 317
317 318 319 317 317 316 315 311 310 310 312 312 313 314 314 314 312 311 309 310 312 312 312 312 312 313 315 316 316 317 317 317 318 316 315 316 316 317 316 316 319 317 314 315 315 315 315 316 316 309 304 308 309 309 312 313 311 308 308 309 309 309 310 311 313 313 313 314 314 315 315 313 313 314 314 314 313 313 313 312 313 313 312 313 314 315 318 319
317 319 318 315 315 315 312 310 310 311 311 312 313 313 313 313 313 311 310 310 313 311 310 311 313 312 313 314 314 315 316 316 317 316 315 315 314 315 315 315 319 318 314 313 314 315 315 315 316 312 309 310 312 313 313 313 314 312 310 311 311 311 311 312 314 314 313 314 314 315 315 313 312 313 313 312 312 313 313 313 314 315 313 313 314 315 317 319
318 320 317 313 314 313 311 311 311 310 310 311 313 313 313 313 313 313 311 311 312 311 309 310 312 312 313 312 312 314 314 314 315 316 316 316 314 314 315 316 317 316 313 313 314 315 316 316 315 315 315 315 313 312 312 312 312 312 312 312 312 312 312 313 315 315 313 313 313 314 315 315 313 313 312 311 311 311 312 313 313 314 314 313 314 315 316 317
318 318 314 312 313 312 312 313 311 309 309 311 312 313 314 314 313 313 312 311 311 311 310 310 310 310 311 311 311 313 313 312 313 314 315 316 315 314 315 316 316 314 313 314 313 313 316 316 315 314 315 316 313 307 306 306 308 310 311 312 312 312 312 313 314 313 313 314 313 314 315 315 314 313 313 312 312 311 311 311 311 312 313 312 314 315 316 316
317 314 310 310 312 313 315 316 312 310 309 309 311 312 313 314 314 314 313 312 311 312 311 310 310 310 310 311 312 312 312 311 312 313 314 314 314 316 316 314 314 313 312 314 314 312 314 315 315 315 315 316 314 310 308 307 307 309 310 311 313 313 313 314 313 311 313 315 314 314 315 314 314 315 314 313 313 311 310 311 312 312 313 312 313 315 315 315
315 313 310 310 310 312 316 317 315 313 311 310 311 312 313 314 314 314 314 313 312 312 311 311 312 311 310 311 312 311 311 312 311 312 313 312 313 317 318 316 313 312 314 319 318 313 313 314 314 314 315 316 315 315 314 311 308 308 310 311 313 313 313 314 313 312 313 314 313 314 314 313 313 314 313 312 313 311 310 311 310 310 312 312 313 315 316 315
315 315 313 310 309 311 312 313 314 315 313 311 312 312 313 314 315 314 314 314 313 312 312 313 312 310 309 310 310 310 310 312 312 311 311 311 311 314 313 314 314 313 315 319 319 314 313 314 313 313 314 314 314 315 315 314 310 309 311 311 312 313 314 313 313 313 314 313 313 314 314 314 313 312 312 312 312 312 311 311 310 310 311 312 313 316 316 315
313 316 315 311 311 312 311 311 312 313 314 313 312 313 314 314 315 315 314 315 315 314 314 313 311 310 311 311 311 311 311 312 312 312 311 310 310 310 309 312 314 312 311 314 316 314 313 313 312 312 313 313 312 313 314 314 312 311 312 312 311 312 314 315 314 313 313 314 314 314 314 315 314 312 312 312 312 312 312 311 311 311 312 312 313 313 313 313
312 315 315 313 313 313 312 312 312 312 313 313 313 314 315 315 315 315 315 315 315 315 315 315 312 310 311 312 312 313 313 313 312 312 311 310 311 310 309 313 315 312 310 311 311 311 311 312 312 312 313 312 311 312 312 313 313 313 313 313 312 312 313 314 314 313 313 314 314 314 314 315 314 312 312 312 312 312 311 310 310 310 311 312 313 311 311 311
311 313 314 313 315 315 313 312 312 311 311 312 313 313 315 316 316 316 315 315 314 314 314 315 314 312 311 311 312 312 313 314 315 314 313 311 311 311 310 312 314 311 310 310 309 309 310 311 312 312 312 313 312 312 312 312 312 312 313 314 313 313 313 313 313 313 313 313 313 313 314 314 313 312 312 311 311 311 310 310 311 310 310 312 313 312 310 310
308 310 310 311 311 312 312 313 312 312 311 311 312 312 313 315 315 315 315 315 315 314 313 314 315 314 313 311 311 311 312 314 316 316 315 313 312 312 311 312 312 310 308 308 308 310 311 311 312 312 313 313 312 312 312 312 312 312 312 313 313 313 313 313 313 313 313 313 312 312 314 314 312 312 312 311 311 310 310 310 310 310 310 310 311 311 310 310
304 304 305 306 306 308 310 312 312 313 312 312 312 312 312 313 314 314 315 315 316 315 314 314 314 315 315 313 312 311 311 312 314 315 314 314 314 313 313 314 314 310 308 308 308 309 310 310 311 312 313 313 313 313 313 312 312 312 312 312 312 312 312 312 313 313 312 312 313 313 314 313 312 311 311 311 310 310 310 309 310 310 310 310 310 310 310 310
300 300 300 302 303 306 309 310 312 313 313 313 313 312 312 313 312 313 315 315 315 315 315 314 314 314 315 315 314 313 312 312 312 312 312 312 313 314 314 315 315 312 310 309 309 309 309 310 311 312 313 313 313 313 313 313 314 313 312 311 311 311 311 311 311 312 312 312 312 312 312 311 310 310 310 309 309 309 310 310 310 310 310 311 311 310 310 310
Wind_Speed
10 11 11 11 12 12 12 12 12 13 13 13 13 13 13 13 12 13 13 12 11 12 12 9 8 7 6 8 9 10 11 10 9 8 9 9 9 10 10 8 8 6 4 3 3 6 7 8 9 7 6 4 4 2 4 2 2 3 4 5 5 6 4 1 3 3 3 5 1 6 7 9 7 6 4 1 6 10 8 9 8 8 8 4 6 6 13 21
10 10 11 11 11 11 11 12 12 12 13 13 13 13 13 13 12 12 12 12 12 11 11 10 8 8 7 7 8 9 9 9 11 13 13 12 10 10 9 7 7 5 3 2 5 7 6 6 7 9 7 4 3 3 4 3 3 5 4 5 6 5 2 2 4 4 4 6 2 3 6 9 6 5 6 5 10 11 12 12 10 11 11 9 9 10 16 19
10 10 11 10 11 11 11 11 12 12 12 12 13 13 12 12 12 12 12 12 12 11 11 11 9 8 7 6 6 7 7 8 12 11 12 16 14 11 7 6 6 4 3 3 4 6 6 7 5 8 7 5 4 3 4 3 3 5 4 6 4 2 2 2 4 4 4 4 4 3 4 7 6 3 6 7 12 12 15 13 11 14 16 15 13 15 18 19
11 11 11 11 11 11 12 12 12 12 12 12 12 12 12 12 12 12 11 11 12 11 11 11 10 8 6 6 5 4 4 7 8 3 8 15 14 12 8 6 5 4 4 4 4 4 5 4 5 8 6 6 4 4 5 4 3 2 4 7 3 3 4 3 2 3 2 2 6 5 2 6 6 5 6 7 10 12 14 14 15 16 16 16 15 17 19 19
11 11 12 12 12 12 13 12 13 13 13 13 13 13 13 12 12 12 11 11 11 11 11 11 11 8 6 5 2 1 2 5 1 2 7 12 13 12 8 6 5 4 3 4 4 3 5 4 4 6 5 6 5 5 6 6 2 2 7 9 4 2 5 1 2 1 1 1 5 6 5 5 4 6 10 11 12 11 6 7 13 15 15 13 17 18 18 19
11 12 12 13 13 13 13 13 14 14 14 14 14 14 13 13 13 12 12 11 10 10 10 10 10 8 5 3 0 3 4 3 2 2 6 10 11 10 7 6 5 4 4 5 5 4 6 5 5 6 5 6 6 6 4 5 3 5 8 8 5 4 5 0 2 1 1 4 6 6 5 3 4 8 11 14 18 15 3 2 3 7 8 7 16 18 17 18
11 12 12 13 14 14 14 14 14 15 15 15 15 15 14 14 14 14 13 13 12 11 10 9 8 7 4 1 2 4 7 5 1 4 6 8 10 9 7 5 5 4 5 7 7 6 6 5 7 5 6 7 7 7 3 4 5 6 7 6 4 3 5 3 2 2 3 6 6 3 3 5 10 10 8 14 20 19 10 2 2 2 2 6 15 17 17 19
13 13 13 13 14 15 15 15 16 16 16 16 16 16 16 15 15 15 15 14 14 13 12 10 7 5 3 2 2 5 8 5 3 5 7 9 8 8 7 5 5 5 6 8 7 6 5 7 7 4 7 6 3 4 3 3 7 10 9 6 3 2 6 5 3 4 5 6 5 3 7 11 13 7 7 17 19 17 15 8 7 6 6 9 13 16 16 17
14 14 14 15 15 15 16 16 17 17 17 17 17 17 17 17 16 16 16 16 16 15 13 10 7 5 5 5 4 6 5 5 5 6 7 8 8 8 7 4 5 6 7 7 5 6 4 5 5 2 7 5 3 4 2 4 5 6 7 6 4 6 7 5 6 7 6 5 5 6 12 13 8 4 10 21 20 17 16 14 10 9 10 12 12 14 15 16
14 14 15 16 16 17 17 17 18 19 19 19 19 18 18 18 18 18 17 18 18 15 12 9 6 5 6 6 5 5 2 3 5 6 6 7 7 5 6 6 6 6 7 5 4 6 4 4 2 1 5 5 5 3 2 4 3 2 6 8 8 10 8 6 8 8 6 6 8 10 12 11 4 2 12 14 8 10 13 14 13 10 12 13 12 13 14 15
15 15 16 16 17 17 17 18 18 19 20 20 20 19 18 18 18 19 18 19 19 14 10 8 5 6 6 6 7 5 2 4 4 5 6 6 6 6 6 7 6 6 6 5 4 3 4 3 1 1 3 2 3 3 3 3 4 4 6 9 12 12 10 10 11 9 6 5 8 10 11 11 5 6 18 10 4 5 10 12 13 12 12 12 13 13 12 13
16 17 17 17 18 18 18 18 18 19 20 21 21 20 19 18 18 19 19 19 18 13 8 5 5 6 5 7 8 5 3 4 4 5 6 6 6 6 6 6 6 7 6 5 3 2 2 0 3 6 3 3 5 3 1 1 3 5 5 9 12 11 12 14 12 9 8 5 7 5 8 12 12 15 23 13 8 7 9 11 12 12 12 11 12 11 10 12
18 19 19 20 20 20 20 19 18 19 20 20 21 20 20 19 19 18 19 19 16 10 6 4 5 6 5 6 5 6 7 6 5 4 6 6 5 4 4 4 5 6 6 5 2 4 4 2 2 6 2 4 6 2 1 2 3 6 5 7 9 10 11 10 9 7 8 5 7 5 7 10 13 21 21 9 11 10 10 11 11 11 11 10 11 10 11 13
19 20 21 22 22 22 22 21 20 20 21 21 20 20 19 19 19 18 19 18 13 7 4 4 5 6 5 5 3 6 9 9 7 5 6 6 5 3 3 3 3 5 6 5 4 6 6 4 2 3 0 3 4 2 4 5 4 5 5 5 6 9 6 6 8 9 8 4 7 7 8 10 10 15 14 9 12 11 10 12 12 12 11 10 11 11 12 13
19 20 21 22 23 23 24 24 23 23 23 22 21 20 19 18 19 18 18 15 9 5 3 4 6 4 5 6 3 5 8 8 8 8 8 7 6 4 5 4 4 5 5 6 7 7 6 5 3 3 1 1 2 4 7 7 6 6 5 6 7 7 5 6 9 11 8 4 8 9 6 11 13 8 6 10 9 10 10 11 11 12 12 11 11 12 12 12
18 19 20 21 22 23 24 25 25 25 25 24 22 20 17 17 18 17 15 10 6 4 3 3 7 5 7 4 2 3 6 7 8 10 10 10 8 5 6 7 5 5 4 5 6 7 5 4 2 2 1 3 5 6 6 7 7 6 6 8 8 8 8 5 7 9 7 5 10 12 7 9 11 4 6 8 8 9 10 11 12 14 13 13 12 12 12 12
17 19 20 21 22 23 24 24 25 25 26 26 24 21 17 16 16 14 11 7 4 4 4 2 4 5 5 2 2 3 4 6 7 8 11 11 8 6 7 6 4 4 5 5 4 5 5 4 2 1 4 6 6 5 5 7 7 6 6 7 9 11 11 6 3 5 8 6 9 13 11 14 15 11 7 6 9 10 11 13 15 15 15 14 12 12 12 12
17 18 19 20 21 22 23 23 23 24 26 26 23 21 17 15 13 9 4 3 3 3 4 3 3 4 4 4 3 1 3 4 7 8 9 10 9 8 5 3 4 5 6 4 4 6 5 4 3 4 6 7 7 6 6 8 9 10 8 7 10 10 11 11 5 5 10 9 10 12 13 17 20 18 17 13 10 12 14 15 16 17 18 16 13 13 13 13
17 18 19 20 21 22 22 22 22 23 25 25 20 17 14 10 9 6 5 6 4 4 3 3 7 5 2 3 3 2 4 5 6 6 8 8 8 8 5 2 5 6 5 4 6 8 5 4 4 5 8 9 11 12 12 14 13 14 12 9 11 11 11 15 6 6 10 8 9 14 15 18 20 18 18 17 15 14 15 15 15 16 17 15 13 14 13 14
16 17 18 19 20 21 21 21 22 23 22 21 16 11 8 6 6 4 5 7 8 9 6 4 10 8 5 2 4 4 3 5 5 5 8 9 8 8 7 5 4 5 7 7 6 5 3 5 7 9 12 13 14 15 16 16 11 12 12 10 13 12 13 16 7 6 6 6 10 14 15 19 21 19 18 17 16 17 18 17 17 18 15 13 14 15 14 14
15 17 17 19 20 21 21 21 22 21 18 14 10 6 5 4 5 3 1 6 13 13 11 8 6 9 9 1 5 6 2 4 6 6 10 11 8 7 8 8 7 6 9 9 4 3 3 6 11 16 17 13 9 9 11 13 11 11 12 11 12 11 13 14 3 6 6 4 9 13 15 19 20 18 17 17 17 18 19 19 20 20 16 12 14 16 14 11
15 16 17 18 19 21 21 21 20 19 14 8 6 6 3 3 3 1 1 7 11 9 7 7 4 8 9 4 6 6 1 6 8 8 13 12 9 8 8 9 10 8 8 8 4 3 6 10 18 20 11 5 3 4 8 12 13 11 9 9 10 10 12 8 4 6 5 3 7 11 13 16 18 18 18 19 19 17 19 21 19 17 16 14 14 13 12 10
15 15 16 17 19 21 21 21 19 16 11 6 5 5 3 2 1 3 1 7 9 6 7 9 9 11 11 6 7 8 7 11 10 9 17 16 9 8 8 10 12 10 8 10 10 8 8 9 14 12 4 4 7 6 7 9 9 10 8 7 10 10 10 6 2 4 6 6 7 11 11 13 16 17 19 23 21 16 18 21 18 15 15 16 14 11 10 11
14 14 15 15 19 20 20 22 16 9 8 6 4 4 2 1 3 3 2 6 8 7 7 8 8 10 11 6 8 13 11 10 7 7 18 19 10 6 9 11 12 11 10 14 15 13 13 7 1 1 3 7 10 7 7 8 8 9 10 10 11 11 11 9 2 1 7 8 4 8 10 11 12 14 15 13 11 11 14 16 15 14 14 14 13 11 10 11
13 13 13 15 17 19 21 19 8 5 8 5 3 3 1 4 5 3 2 5 8 4 2 4 5 7 9 6 9 11 6 8 6 4 14 15 8 7 6 7 9 12 14 16 15 14 15 5 4 3 4 6 9 8 9 9 8 9 11 15 16 15 14 11 5 5 8 6 2 2 9 8 7 11 11 4 4 8 9 11 13 13 12 11 11 11 10 10
13 13 12 13 15 18 18 9 4 8 9 3 3 2 3 5 5 2 1 5 8 3 3 5 6 7 9 7 7 6 1 5 1 4 10 9 4 4 4 4 5 9 10 10 9 7 6 2 2 6 7 6 8 11 11 10 8 8 5 7 12 13 13 11 6 3 6 6 1 1 7 9 5 7 9 5 6 10 7 8 12 10 10 10 8 8 9 10
14 12 12 12 12 14 11 5 8 11 5 2 3 3 3 5 5 2 2 7 9 5 6 3 2 4 6 4 5 7 2 2 4 4 6 4 3 3 5 7 6 5 2 1 5 4 4 4 3 6 7 7 9 10 10 11 9 5 1 2 2 6 9 8 5 5 6 8 4 5 4 11 10 7 11 10 10 11 9 10 12 9 11 14 11 7 10 11
14 12 12 11 10 10 8 9 11 7 4 5 5 4 3 4 5 3 2 7 5 5 4 1 1 2 4 1 3 3 1 0 3 2 2 0 3 4 8 13 10 7 7 6 7 2 3 5 6 8 7 8 7 3 2 10 9 2 3 3 3 1 2 3 4 6 6 8 7 7 8 8 12 6 12 14 13 13 13 15 14 11 11 15 15 7 10 11
15 13 12 11 10 10 10 11 9 7 7 6 5 4 2 3 4 1 4 7 1 4 2 3 3 2 5 4 5 3 1 1 0 1 2 2 4 2 5 10 9 7 7 10 10 2 3 1 2 7 8 6 3 4 4 4 5 2 4 5 6 3 2 1 4 5 6 9 9 8 12 7 13 5 10 11 11 11 13 12 12 13 10 11 13 7 8 9
17 15 13 12 10 8 9 10 10 10 9 6 6 3 1 3 3 4 9 7 1 1 2 3 4 6 10 9 7 8 5 1 3 3 3 3 4 3 2 2 4 5 5 8 10 4 3 3 1 4 6 2 4 6 5 3 2 5 5 3 2 2 2 2 4 2 5 11 10 12 17 11 10 2 9 9 10 12 11 9 10 11 10 9 9 6 8 8
19 16 15 15 12 8 7 6 6 8 6 5 5 1 2 3 2 8 10 2 3 2 5 5 5 8 12 11 7 9 10 5 5 7 5 2 4 6 3 2 3 4 5 7 8 7 6 5 3 2 1 3 5 3 3 3 2 3 3 2 3 4 2 3 3 3 6 10 5 12 20 17 11 3 7 8 11 14 11 8 10 10 9 8 7 6 7 8
22 19 18 19 16 11 9 6 5 5 4 4 3 2 3 3 6 11 6 4 1 6 7 6 8 9 11 12 6 7 8 6 8 9 7 5 6 7 8 7 6 4 6 7 6 5 6 7 7 3 1 5 6 3 2 3 3 4 5 4 4 4 3 4 4 4 8 8 2 8 12 14 13 9 8 8 9 13 10 7 8 8 8 8 5 7 7 7
23 21 21 23 21 18 16 13 9 7 5 3 2 4 4 6 10 10 8 5 2 3 4 4 8 8 8 9 6 5 3 3 9 10 7 7 6 8 11 11 6 3 4 4 4 4 3 3 8 7 2 7 11 8 5 4 7 8 8 7 6 5 5 6 6 6 9 6 3 5 4 7 9 8 14 17 14 14 11 8 8 8 9 6 3 6 6 7
26 23 24 27 27 22 19 17 11 7 5 2 3 5 6 11 11 5 10 11 4 2 4 4 6 7 7 7 4 6 5 4 9 9 7 8 6 7 10 13 11 5 2 3 3 5 6 6 8 10 4 10 16 13 5 3 7 10 8 7 7 6 6 6 7 8 8 5 1 4 2 5 4 1 12 19 18 15 11 8 8 9 8 3 4 5 5 7
29 27 27 29 27 24 22 18 12 8 5 2 4 6 9 12 9 4 7 9 5 3 4 3 6 7 8 7 3 5 6 4 8 9 7 9 8 8 9 11 15 10 4 5 3 3 7 9 6 6 2 12 14 8 3 4 4 7 6 7 8 6 7 7 9 6 3 6 5 5 4 6 6 3 7 11 13 15 12 8 9 10 8 5 4 5 5 7
32 30 28 29 29 28 27 22 16 12 7 4 4 8 12 11 6 3 4 5 5 6 7 3 5 6 8 6 5 7 4 2 7 7 6 10 11 10 8 7 15 16 10 7 3 3 6 5 6 4 0 6 5 1 4 2 2 5 6 7 4 1 3 7 9 3 1 6 9 6 6 7 8 8 9 12 12 14 12 9 10 12 10 7 5 5 6 7
31 28 25 28 30 31 31 28 23 17 8 4 8 11 12 10 7 5 1 1 1 6 8 6 7 8 9 7 7 10 6 2 7 6 5 7 8 11 10 6 12 18 16 11 5 5 6 4 4 5 2 1 3 3 1 2 1 4 5 4 1 2 1 4 7 4 4 9 9 10 14 11 8 7 8 15 14 14 11 10 11 11 9 8 7 6 6 7
27 19 18 27 32 32 33 32 28 19 7 4 11 15 10 8 10 6 2 3 0 6 9 9 7 8 10 9 7 11 11 6 8 7 6 6 6 10 13 8 10 17 20 16 7 3 2 4 3 2 0 3 2 2 3 2 2 1 2 1 1 2 4 5 6 5 7 9 8 14 20 15 10 7 6 14 16 14 13 11 11 10 9 8 8 7 7 7
22 10 8 18 29 32 34 33 23 11 6 7 12 13 8 8 10 4 2 3 3 7 10 11 8 7 9 10 7 9 12 9 9 7 7 7 6 8 14 9 10 16 20 16 9 4 2 4 4 1 2 3 3 4 5 5 4 1 4 3 1 2 3 5 5 5 7 8 9 13 17 13 8 6 8 15 15 13 12 11 10 11 12 10 8 7 7 7
12 5 2 9 24 32 35 28 14 5 6 8 10 11 7 8 8 4 5 6 5 5 7 10 11 9 9 9 7 6 9 9 8 8 7 8 7 7 12 11 7 10 14 13 11 6 2 4 5 1 1 3 5 7 10 10 8 6 5 6 6 3 1 3 4 6 6 7 8 8 12 12 4 1 5 10 12 12 12 10 9 10 11 11 8 7 6 6
6 4 2 13 28 35 30 16 6 6 5 5 9 11 9 8 8 8 7 4 3 2 2 6 10 10 9 9 8 6 6 6 8 8 7 8 10 7 9 12 9 7 7 7 9 8 4 5 7 3 3 6 7 8 10 10 8 8 9 9 9 8 5 4 7 7 3 5 8 7 11 15 3 6 5 7 8 8 9 9 7 7 10 10 9 9 8 7
6 5 4 21 38 38 23 7 5 6 4 6 9 7 6 7 10 10 6 2 3 2 1 3 6 8 9 11 12 8 6 6 8 8 7 9 13 9 8 12 11 11 9 5 7 7 3 2 6 8 6 5 4 2 2 3 2 3 6 8 8 9 9 9 8 5 3 4 8 7 10 15 4 8 6 6 7 5 7 9 7 7 10 10 9 10 10 9
5 3 5 26 45 37 15 5 6 5 5 6 7 7 6 5 6 6 5 6 5 1 1 5 6 8 9 10 11 10 8 8 10 12 10 9 11 8 7 11 10 10 9 5 3 3 2 1 6 8 5 4 2 2 1 1 2 4 6 8 9 10 10 10 6 2 1 5 8 7 9 14 5 7 3 4 5 6 7 8 9 9 8 9 10 10 9 10
3 2 2 23 42 32 12 6 7 7 8 5 7 11 10 6 7 9 8 8 6 3 4 8 8 8 9 9 10 10 9 9 11 13 11 9 7 3 2 10 11 9 9 5 4 5 3 4 6 6 5 5 5 5 4 3 5 7 8 9 11 12 12 9 4 1 4 13 16 10 8 13 8 3 5 11 7 7 9 8 8 9 8 9 11 10 9 10
3 2 1 12 26 19 7 6 7 9 12 11 11 13 12 7 8 14 14 10 9 7 6 6 4 4 6 7 9 12 12 10 9 10 10 10 5 4 3 4 9 11 6 4 2 5 5 5 7 8 9 8 10 12 6 4 6 7 8 12 14 15 16 11 5 5 10 18 19 13 11 16 15 12 17 18 10 8 9 8 7 8 9 10 10 9 10 10
3 4 2 3 10 11 5 3 4 6 10 12 10 10 14 13 8 10 13 11 12 12 9 5 1 3 5 7 9 12 13 12 10 8 8 8 4 3 4 3 4 5 6 12 7 1 1 3 9 13 14 12 15 16 6 3 6 8 10 14 15 16 18 13 7 9 13 14 13 15 18 19 19 22 28 26 19 15 13 8 6 7 8 9 9 9 10 10
3 4 4 3 4 8 7 4 5 5 7 10 7 6 14 17 11 8 10 10 11 11 8 6 4 5 8 10 9 9 10 12 11 10 11 11 10 7 2 4 4 6 9 9 6 3 1 6 11 18 21 20 21 23 19 13 10 11 12 14 15 16 16 15 15 18 16 10 11 17 22 21 18 22 28 29 24 19 16 15 15 11 8 6 7 9 11 10
5 3 3 4 5 7 8 9 11 10 9 11 8 8 14 15 12 10 9 8 8 7 5 6 10 15 17 15 11 9 9 10 10 11 12 12 13 13 5 1 2 3 6 3 4 3 2 8 11 17 22 23 22 25 27 25 20 15 14 16 17 17 18 22 25 23 16 12 15 19 24 24 19 19 25 28 24 20 18 19 19 18 15 7 6 9 13 11
5 4 2 3 5 6 9 14 16 16 16 13 9 10 14 14 15 14 10 7 8 9 11 11 13 19 23 20 14 11 10 10 11 12 11 12 13 11 7 7 5 4 5 4 2 2 2 6 11 16 18 20 21 22 25 27 23 19 18 18 17 17 24 29 24 16 17 24 27 27 29 26 18 19 25 26 24 21 20 20 18 19 21 13 7 11 16 15
4 3 3 4 5 5 7 11 13 14 15 14 10 10 13 17 19 16 12 11 10 9 13 17 19 19 21 20 17 16 17 18 18 18 14 13 12 9 7 9 7 1 4 5 4 3 5 8 11 12 13 15 19 22 26 26 23 22 21 18 17 19 25 26 18 12 18 27 28 27 26 19 14 20 23 21 22 21 20 21 20 21 24 20 14 15 19 19
7 8 8 6 5 5 6 7 8 10 11 11 12 11 14 20 23 18 15 17 17 13 14 20 24 20 18 18 19 20 22 23 25 25 21 16 13 11 8 8 9 6 4 5 4 5 7 9 8 8 10 13 16 21 25 25 23 22 20 20 25 28 23 17 14 14 18 20 19 19 17 12 14 19 18 17 22 22 21 22 22 23 24 19 15 17 19 18
9 10 9 6 4 4 5 6 8 10 8 8 13 14 16 20 22 20 15 14 19 21 19 19 20 16 14 18 21 23 26 27 26 24 21 18 16 12 7 7 11 10 7 6 6 5 7 7 6 8 10 12 16 20 20 18 15 14 17 24 30 30 23 19 20 22 21 17 13 12 13 13 18 19 18 21 24 21 18 19 20 22 22 15 11 16 18 16
Wind_Direction
4 6 9 12 12 15 16 16 16 15 13 12 14 12 13 13 11 8 4 4 6 8 3 351 343 333 306 277 266 270 281 293 297 264 238 246 246 239 238 237 252 256 266 279 206 197 194 205 210 195 201 195 213 196 159 193 206 219 227 241 254 261 272 354 276 286 315 307 152 163 191 224 220 177 180 136 237 242 232 222 223 214 219 191 121 130 147 145
357 358 1 3 3 8 9 9 9 9 9 8 8 8 9 7 6 5 1 358 355 358 359 354 342 334 326 296 276 270 279 284 276 267 250 246 245 237 231 230 246 250 253 244 209 216 226 236 211 192 213 209 184 176 178 181 198 230 249 253 257 275 311 13 292 283 285 292 298 174 201 226 235 175 161 209 230 224 231 234 221 224 223 189 151 154 156 155
351 352 355 355 356 360 1 2 2 3 3 2 3 4 4 2 1 360 357 354 349 350 349 347 342 334 327 309 293 272 280 283 272 265 238 231 233 227 217 219 241 243 230 239 242 246 269 284 234 198 217 225 188 178 199 179 197 234 246 256 265 318 312 265 255 258 271 288 275 252 202 220 238 173 151 220 245 228 228 231 218 224 227 207 175 166 167 170
343 344 346 346 347 350 352 354 353 355 355 355 357 357 359 359 358 356 354 351 346 345 341 339 336 333 327 318 303 267 280 280 270 240 207 212 213 213 211 213 230 235 226 236 244 247 269 275 220 205 223 234 196 189 219 185 186 220 217 258 310 29 302 267 211 255 262 272 269 260 209 230 230 189 187 224 249 242 235 231 224 224 226 213 182 173 177 179
333 334 337 336 337 340 343 344 344 346 345 346 349 350 352 352 353 352 349 346 342 340 337 333 328 327 328 323 296 209 260 269 276 117 192 191 193 201 208 216 223 233 222 219 220 225 242 223 198 213 232 237 201 203 223 183 173 260 234 258 297 306 282 296 109 291 213 244 263 242 232 236 199 199 218 226 239 247 250 242 233 226 234 221 178 175 180 183
325 326 328 326 328 330 331 333 336 337 337 338 340 342 344 345 346 346 344 340 335 333 330 327 322 317 321 326 191 172 236 265 84 145 187 178 191 197 202 215 222 234 214 217 224 221 229 211 205 218 236 245 222 219 212 160 178 258 248 253 266 257 261 249 104 127 197 238 241 236 248 226 207 232 227 226 236 244 256 34 252 233 251 214 164 171 181 187
323 323 321 320 320 320 322 324 327 328 329 330 333 335 337 339 339 339 341 336 332 329 322 318 311 297 296 314 160 197 237 262 165 188 192 190 203 202 211 221 227 228 209 223 229 226 236 234 231 237 251 256 241 229 185 154 198 241 264 263 255 244 246 248 129 166 220 240 243 270 289 238 235 250 242 233 238 243 244 187 158 203 225 166 160 174 186 191
323 322 320 318 316 315 315 317 321 322 321 323 325 329 331 333 334 335 336 334 331 326 318 308 292 277 247 188 212 236 239 238 217 218 217 216 216 213 223 232 235 221 214 236 246 250 263 256 252 265 259 260 261 235 177 206 219 223 254 272 254 237 245 241 189 211 223 234 250 266 256 246 246 267 270 249 246 245 244 226 187 185 189 181 182 187 190 196
322 321 320 317 315 314 314 317 319 317 317 318 319 323 326 329 330 330 333 333 331 326 318 301 279 253 202 192 243 263 243 209 223 239 225 221 225 225 223 225 234 225 225 239 252 255 263 268 266 287 280 287 287 256 184 234 237 221 259 285 257 254 252 231 228 232 219 222 222 230 246 249 247 299 274 253 250 247 242 237 215 197 205 203 201 199 196 200
320 320 319 316 315 314 316 317 317 316 316 315 316 320 322 325 326 327 331 331 331 329 316 295 268 227 199 201 235 258 245 193 219 231 220 222 222 215 221 225 224 225 233 229 235 252 268 294 319 19 292 282 259 252 182 237 298 312 286 288 266 261 256 229 238 233 214 229 214 221 251 253 206 186 259 251 244 240 229 230 221 208 218 215 211 208 203 204
320 319 317 316 314 314 315 316 316 316 315 314 316 318 320 323 323 325 328 329 332 331 314 293 250 214 207 222 240 254 219 193 213 215 217 224 211 206 224 232 219 217 240 243 232 264 297 303 95 161 284 302 256 229 206 264 327 322 302 291 269 255 246 229 235 227 211 225 207 220 259 255 202 206 247 240 134 192 204 214 214 213 224 218 216 212 205 209
320 320 319 317 315 315 314 314 315 314 312 313 313 317 321 321 321 323 325 327 331 328 311 281 220 201 221 242 245 249 217 199 219 218 218 221 213 214 222 230 223 213 239 261 231 199 270 289 185 243 294 346 289 257 242 315 305 293 293 285 276 262 250 231 224 213 204 199 170 200 267 248 214 223 246 232 162 178 197 212 212 214 224 218 216 212 208 210
321 322 320 319 319 318 315 315 315 312 311 310 311 316 319 320 320 321 322 324 328 325 299 249 204 194 232 258 238 231 230 225 232 225 218 214 203 206 210 217 218 210 227 253 209 177 191 152 235 268 318 290 283 330 303 232 253 280 260 264 280 276 259 218 194 178 189 185 147 179 272 256 215 224 240 209 164 185 203 218 220 220 222 216 214 210 211 209
320 320 320 320 320 319 318 317 316 314 311 309 310 312 316 319 318 319 320 321 325 316 273 223 192 184 232 262 239 233 234 234 234 220 213 198 171 166 168 177 192 199 207 204 184 175 174 159 225 262 158 269 294 6 263 233 214 255 253 243 253 266 262 169 162 168 180 174 153 185 258 272 257 239 226 170 165 192 212 223 224 227 222 212 211 209 213 209
318 318 319 319 319 319 318 318 318 317 313 310 309 310 315 316 315 318 317 316 319 293 245 202 188 190 262 257 240 244 233 231 224 213 210 186 171 171 160 159 154 159 165 168 168 158 157 168 209 236 163 150 267 260 266 257 226 228 247 257 241 244 245 179 175 186 190 159 172 194 240 263 276 276 168 149 173 196 225 237 231 234 228 215 209 208 215 212
316 317 317 319 319 319 318 319 319 317 313 309 308 310 313 313 312 312 310 309 302 245 192 189 192 212 285 268 197 244 226 222 213 212 214 194 191 191 156 147 136 134 138 142 147 145 158 187 221 280 239 206 236 248 266 271 253 224 226 261 261 254 261 220 173 197 204 145 178 209 249 265 269 271 133 149 185 201 234 248 244 246 240 224 212 207 212 211
315 316 318 319 319 319 321 322 320 317 312 308 309 310 312 312 306 303 299 284 260 205 184 226 187 207 265 242 222 252 201 197 197 202 209 197 194 183 157 153 150 135 131 136 147 162 183 197 196 251 228 228 237 239 256 264 263 246 224 249 264 263 268 256 194 197 195 186 205 215 236 256 262 265 249 205 191 207 236 252 254 256 252 239 223 210 209 207
314 316 318 318 320 323 324 325 322 317 312 309 312 313 313 307 293 289 274 211 159 155 206 239 197 217 239 202 226 267 112 162 181 186 198 196 188 179 180 187 163 155 159 170 190 191 197 199 204 250 240 226 223 216 230 241 255 278 271 262 272 271 265 264 264 167 176 201 229 224 231 250 258 263 266 256 229 223 236 251 258 258 255 250 235 222 214 208
311 314 317 319 323 325 327 330 326 321 316 311 314 316 314 299 275 252 197 174 164 204 243 185 189 236 286 178 176 93 97 138 163 179 184 185 178 176 201 199 166 187 203 201 191 188 194 204 211 250 243 224 219 214 223 240 258 281 283 278 280 280 268 269 274 151 178 205 226 233 242 254 258 260 263 265 260 252 250 253 258 258 256 253 243 233 221 215
308 312 315 318 323 324 328 331 328 328 324 318 326 327 305 276 262 239 191 198 220 242 273 211 202 248 278 171 139 133 145 161 175 185 174 171 163 173 199 190 180 214 227 223 196 172 191 223 226 238 240 237 235 230 235 250 267 278 277 274 270 270 270 270 264 151 184 222 237 243 249 256 261 263 263 266 268 269 266 261 258 258 256 252 245 237 225 220
305 308 312 317 321 323 327 331 329 332 331 329 337 318 283 281 279 284 213 238 234 234 257 249 230 265 267 217 150 159 156 210 203 178 172 173 163 179 191 182 200 221 220 221 193 118 189 223 235 241 248 255 259 256 252 256 266 267 264 269 269 263 266 270 238 145 175 217 252 257 259 260 261 264 265 264 261 262 265 263 260 262 263 258 248 240 230 218
301 303 310 314 317 322 327 330 329 332 336 338 319 284 302 354 307 303 4 273 248 220 243 254 249 265 255 226 193 176 182 245 225 179 171 175 180 199 188 179 213 223 194 192 180 189 212 228 242 245 251 266 272 278 264 260 262 261 255 258 263 262 267 267 128 139 177 205 264 270 270 269 267 266 264 259 254 251 254 257 260 266 269 263 253 246 232 205
296 300 307 310 316 322 328 328 326 331 339 343 315 294 325 4 93 114 187 275 270 215 214 230 229 241 237 222 197 185 214 237 235 196 171 171 187 213 208 198 223 230 189 194 211 215 220 234 247 247 223 237 253 241 241 256 253 242 241 249 254 255 264 263 155 156 196 215 274 289 280 272 268 262 254 251 249 245 246 252 258 263 262 259 258 254 233 201
292 297 302 308 315 322 330 327 325 326 325 330 313 289 287 197 126 98 246 273 267 218 203 222 230 239 233 217 180 190 219 229 229 198 169 172 179 190 220 220 227 237 218 217 221 226 239 239 211 184 172 232 251 229 214 241 248 232 226 235 248 252 256 263 300 339 240 230 257 291 281 267 255 245 240 241 240 239 241 247 256 257 253 254 257 252 233 208
288 291 297 305 312 325 331 326 326 330 315 312 283 270 218 160 129 81 312 271 251 218 179 205 205 225 213 175 168 184 229 228 217 169 165 182 187 165 208 224 225 240 234 230 231 239 248 232 112 203 209 214 238 238 220 225 251 245 223 229 245 258 264 269 322 359 289 261 173 284 293 275 234 229 230 184 167 222 227 231 242 252 253 246 242 238 221 204
283 285 293 298 307 327 332 324 333 329 313 270 268 273 171 161 144 109 326 273 254 195 134 187 181 191 184 160 159 151 273 248 190 107 163 195 224 187 222 202 206 251 246 238 243 247 248 131 120 234 229 214 231 249 235 218 246 254 229 239 248 257 266 270 293 310 280 283 187 105 310 289 247 222 231 198 188 212 205 219 230 237 249 243 232 213 194 194
276 277 285 288 303 328 334 320 318 319 304 268 301 273 203 183 182 220 286 277 261 165 130 193 187 171 162 143 158 152 215 249 92 112 169 198 215 204 237 205 191 241 225 232 256 234 182 164 189 216 221 228 229 249 235 208 230 252 19 358 257 250 257 255 267 249 261 293 271 182 232 278 273 228 219 224 231 232 229 241 241 227 230 241 243 196 174 190
266 267 274 276 289 312 314 303 309 309 286 309 315 271 245 215 221 256 267 267 263 117 120 189 124 105 106 95 205 175 319 201 129 139 112 189 213 189 225 224 229 227 180 190 234 225 142 184 196 187 200 227 223 267 233 197 220 265 54 37 69 79 248 214 241 255 272 293 271 199 177 254 280 230 195 211 225 235 237 242 248 241 224 229 241 210 168 188
257 257 259 260 270 289 294 288 285 273 274 302 308 278 259 232 242 266 246 251 224 110 135 135 137 157 128 140 212 218 359 26 117 70 110 194 234 242 238 236 252 243 192 208 240 282 78 171 207 187 203 227 196 38 16 213 219 142 106 82 77 89 98 148 243 270 282 271 258 210 169 222 282 244 172 195 210 219 231 236 238 245 234 219 231 213 166 184
250 248 246 246 254 271 280 274 264 263 270 290 300 292 207 222 238 233 234 245 302 111 121 134 172 169 152 157 201 213 214 207 95 131 172 181 202 234 279 260 261 256 223 235 259 268 124 100 18 216 217 211 101 68 25 13 110 135 145 114 112 189 167 206 240 265 277 264 249 202 179 202 272 243 149 179 202 202 210 222 221 230 235 218 217 202 171 180
247 240 234 234 233 239 259 266 266 264 260 284 300 256 203 222 213 236 233 249 323 185 136 173 180 151 168 184 194 193 201 209 145 155 190 169 176 203 210 191 196 240 245 243 252 238 187 172 192 206 176 125 112 99 60 57 126 166 176 194 229 229 198 214 213 168 247 263 237 183 183 198 233 221 156 185 200 196 192 210 224 225 231 222 199 184 179 179
246 235 231 232 226 224 236 246 272 274 255 289 307 196 212 215 223 238 224 75 318 191 152 175 178 170 195 207 209 175 182 204 177 178 195 178 189 200 201 200 173 191 238 224 225 223 206 204 186 139 115 180 173 162 118 118 182 203 193 195 234 246 229 231 217 192 235 254 140 155 185 208 234 244 229 225 206 196 196 216 234 232 234 233 190 165 170 172
251 238 232 233 227 224 231 237 253 271 272 302 270 212 208 232 235 222 188 170 216 168 116 132 165 176 194 206 214 170 169 202 174 185 199 182 208 216 211 220 209 238 255 205 208 212 219 226 169 159 203 193 187 196 206 189 183 192 191 186 206 231 248 250 241 237 245 246 129 131 188 234 256 249 226 230 221 206 211 220 224 228 230 231 171 147 159 171
256 244 235 234 230 227 230 232 236 249 260 272 233 204 201 236 239 183 181 204 204 106 89 96 147 172 196 215 198 165 203 218 164 177 195 184 212 224 214 220 218 240 275 214 247 220 242 271 174 169 172 169 188 210 212 135 174 194 196 197 213 228 243 251 255 256 265 288 194 153 191 237 266 217 198 217 220 210 217 214 205 222 221 183 118 143 163 180
255 244 238 234 226 221 222 224 223 217 207 210 232 206 207 233 235 191 206 206 181 144 116 108 153 176 216 224 192 192 221 218 167 176 198 197 211 215 205 206 202 200 189 212 246 189 239 261 168 141 133 163 182 209 158 111 183 194 183 207 231 236 230 247 269 269 300 319 272 198 219 245 263 269 184 198 207 201 211 209 201 222 215 159 154 188 185 190
246 240 236 229 220 215 213 213 206 189 171 174 215 218 224 237 233 215 222 193 183 154 131 166 186 191 226 209 188 208 213 201 179 183 212 214 228 227 207 192 190 189 185 190 212 188 231 259 144 121 331 164 171 229 160 187 218 164 176 205 223 278 229 244 265 271 121 279 268 235 246 257 269 263 186 168 190 198 200 198 203 221 215 191 199 198 190 197
234 231 229 224 219 213 210 208 193 174 163 184 207 220 232 243 247 255 289 62 226 153 150 213 205 191 220 219 204 191 172 184 184 188 216 204 228 223 199 198 187 188 197 199 216 224 228 264 175 170 211 148 359 345 161 284 291 144 187 209 111 44 310 246 257 263 244 261 270 264 266 267 269 267 171 167 197 204 195 200 207 216 213 207 213 206 199 196
230 225 231 228 218 210 209 204 185 165 148 188 226 237 243 243 247 250 127 94 191 175 189 227 209 188 215 232 220 171 164 191 176 182 219 202 221 194 175 197 191 189 205 207 220 253 207 251 231 162 144 108 72 266 195 228 239 175 282 298 84 223 209 204 224 244 249 255 265 270 276 272 253 255 178 177 199 200 195 206 211 208 209 210 217 221 212 190
237 228 250 229 214 209 204 193 177 156 151 179 219 240 249 252 259 271 171 194 212 197 213 234 224 214 222 232 232 164 168 192 171 176 212 205 220 178 163 185 193 197 206 199 209 238 169 230 238 44 14 117 138 225 201 178 183 260 302 273 228 250 231 211 210 225 238 247 261 273 282 278 253 246 201 183 190 194 193 202 206 208 212 210 211 222 215 194
233 231 292 199 198 200 190 176 160 159 185 188 216 233 245 261 271 276 239 238 239 219 234 247 239 235 229 229 245 207 191 204 190 198 211 195 213 197 172 177 180 197 204 193 208 222 150 224 232 75 344 212 195 202 195 189 181 187 223 217 201 196 281 287 245 234 237 246 255 263 272 273 275 155 181 167 171 185 187 195 199 201 211 211 208 216 216 205
205 246 238 171 178 176 166 157 156 179 195 220 233 240 250 263 273 266 252 255 271 252 256 260 250 251 248 240 245 228 206 220 214 216 220 204 223 226 177 180 179 152 159 187 213 212 177 208 221 204 203 223 219 195 196 201 186 185 199 202 199 187 183 235 235 225 218 239 246 244 260 267 265 101 125 136 149 178 182 188 193 191 203 209 209 216 219 215
213 256 187 168 171 163 151 164 194 175 206 223 225 249 265 262 270 271 264 255 270 278 336 275 259 256 253 249 250 233 203 221 224 223 229 219 226 226 175 180 178 145 144 184 209 202 171 172 223 230 222 225 223 173 212 220 176 222 223 208 208 195 193 216 223 213 182 222 246 245 256 264 240 112 118 128 140 180 183 182 204 209 200 201 206 213 217 218
226 257 163 170 171 161 154 202 185 182 227 224 236 258 255 248 264 277 269 240 233 224 228 254 260 255 250 252 253 241 223 230 229 228 238 235 233 234 191 177 163 152 173 196 183 160 90 134 224 240 258 278 261 123 51 55 165 242 242 215 215 211 210 222 234 254 195 208 230 231 243 259 247 117 147 238 200 209 203 194 220 227 203 203 213 211 212 217
242 288 146 178 177 170 174 199 184 208 224 227 244 240 240 249 245 247 249 234 222 213 233 247 260 264 263 271 273 258 246 246 238 236 243 242 246 291 199 180 168 178 201 202 178 174 172 197 213 233 253 265 261 230 216 195 190 219 229 214 215 218 217 229 248 292 247 236 237 240 244 254 251 147 239 257 230 203 206 199 214 225 208 208 216 212 213 217
263 252 130 192 194 193 204 205 201 212 211 218 229 228 234 240 230 235 240 236 230 228 236 240 252 297 286 279 279 266 256 257 253 251 255 249 253 17 13 212 196 205 230 354 7 188 190 196 196 218 229 220 231 239 228 171 183 210 227 216 213 212 209 218 229 218 237 241 239 241 248 255 266 277 272 264 246 220 217 198 193 216 222 224 221 211 212 216
265 236 181 187 216 230 254 262 239 219 203 213 223 223 229 234 236 232 231 236 234 227 232 237 242 330 293 256 259 261 255 259 268 276 280 272 276 21 22 338 282 266 354 8 358 198 196 220 205 223 236 225 231 244 250 122 164 191 213 214 212 211 209 213 224 226 234 241 238 238 246 254 265 271 273 271 267 264 262 254 235 219 216 222 221 214 213 214
254 243 195 162 213 234 248 260 245 224 198 200 201 201 222 231 238 223 210 222 229 221 231 243 216 231 244 236 245 257 253 257 267 274 277 280 281 283 347 49 348 350 23 8 338 5 339 250 230 237 244 240 242 250 254 251 228 205 204 210 208 207 207 211 223 230 232 240 245 241 244 252 254 257 266 272 272 271 273 276 275 268 249 220 209 222 227 222
242 254 197 191 207 212 224 230 229 226 208 196 199 214 222 224 221 215 208 216 223 202 202 235 216 216 228 228 226 241 249 253 258 252 252 259 262 265 273 195 188 90 71 26 349 26 272 255 247 249 253 250 250 253 255 258 253 233 224 227 219 208 207 215 225 229 228 237 249 248 248 252 251 251 259 266 270 274 277 278 280 282 280 256 190 218 236 234
252 266 260 241 231 214 217 221 221 222 215 206 210 220 224 226 221 217 209 203 217 203 201 228 227 218 226 225 218 228 234 235 248 243 231 232 240 248 260 253 233 124 125 181 179 135 227 253 247 252 261 260 257 258 258 260 262 255 247 244 236 224 222 227 230 223 222 235 243 247 251 255 256 256 256 261 270 277 280 281 281 280 279 269 226 236 253 255
275 287 295 282 274 269 253 235 225 225 219 213 218 217 219 229 228 225 215 204 213 204 198 222 233 226 225 221 214 223 223 222 236 239 227 222 226 229 233 238 240 171 145 184 189 177 207 229 237 248 262 258 254 257 257 257 262 262 259 258 258 251 240 238 236 221 224 238 243 246 253 260 260 257 257 264 272 276 278 280 279 276 275 273 266 264 268 271
297 325 327 306 286 276 268 256 240 239 228 213 219 222 224 230 230 232 231 217 216 211 198 213 227 230 230 225 221 227 229 226 231 234 230 225 220 220 223 214 207 194 165 178 185 177 202 228 236 240 252 250 244 248 252 255 259 260 260 257 252 250 247 244 243 234 231 240 248 250 253 255 254 258 264 269 268 268 270 273 274 274 275 278 276 269 268 271
303 324 327 311 289 253 250 261 248 246 244 224 223 221 223 230 228 230 239 229 219 222 219 217 223 226 229 227 223 227 233 234 235 235 236 238 234 228 225 199 186 182 180 196 200 183 195 218 224 224 243 249 243 246 252 255 258 253 241 238 239 244 253 257 255 249 238 234 239 241 238 242 251 259 266 267 263 260 259 262 267 272 276 278 266 261 267 271